Terminal Aerodrome Forecast
Issued by NWS

Home | Current Version | Previous Version | Text Only | Print | Product List | Glossary On
Versions: 1 2 3 4 5 6 7 8 9 10 11 12 13 14 15 16 17 18 19
300
FTUS42 KMLB 071128
TAFSFB
TAF
KSFB 071128Z 0712/0812 31015G22KT P6SM BKN008 OVC010
     FM071500 31018G25KT P6SM BKN015
     FM071700 31020G28KT P6SM SCT025
     FM080000 30012KT P6SM SKC
     FM080600 29007KT P6SM SKC=

USA.gov is the U.S. government's official web portal to all federal, state and local government web resources and services.